Probability
0 0 0 0 0 0 0 0 0 0 0 0 0 0 0 0 0 0 0 0 0 0 0 0 0 0 0 0 0 0 0 0 0 0 0 0 0 0 0 0 0 0 0
0 0 0 0 0 0 0 0 0 0 0 0 0 0 0 0 0 0 0 0 0 0 0 0 0 0 0 0 0 0 0 0 0 0 0 0 0 0 0 0 0 0 0
0 0 0 0 0 0 0 0 0 0 0 0 0 0 0 0 0 0 0 0 0 0 0 0 0 0 0 0 0 0 0 0 0 0 0 0 0 0 0 0 0 0 0
0 0 0 0 0 0 0 0 0 0 0 0 0 0 0 0 0 0 0 0 0 0 0 0 0 0 0 0 0 0 0 0 0 0 0 0 0 0 0 0 0 0 0
0 0 0 0 0 0 0 0 0 0 0 0 0 0 0 0 0 0 0 0 0 0 0 0 0 0 0 0 0 0 0 0 0 0 0 0 0 0 0 0 0 0 0
0 0 0 0 0 0 0 0 0 0 0 0 0 0 0 0 0 0 0 0 0 0 0 0 0 0 0 0 0 0 0 0 0 0 0 0 0 0 0 0 0 0 0
0 0 0 0 0 0 0 0 0 0 0 0 0 0 0 0 0 0 0 0 0 0 0 0 0 0 0 0 0 0 0 0 0 0 0 0 0 0 0 0 0 0 0
0 0 0 0 0 0 0 0 0 0 0 0 0 0 0 0 0 0 0 0 0 0 0 0 0 0 0 0 0 0 0 0 0 0 0 0 0 0 0 0 0 0 0
0 0 0 0 0 0 0 0 0 0 0 0 0 0 0 0 0 0 0 0 0 0 0 0 0 0 0 0 0 0 0 0 0 0 0 0 0 0 0 0 0 0 0
0 0 0 0 0 0 0 0 0 0 0 0 0 0 0 0 0 0 0 0 0 0 0 0 0 0 0 0 0 0 0 0 0 0 0 0 0 0 0 0 0 0 0
0 0 0 0 0 0 0 0 0 0 0 0 0 0 0 0 0 0 0 0 0 0 0 0 0 0 0 0 0 0 0 0 0 0 0 0 0 0 0 0 0 0 0
0 0 0 0 0 0 0 0 0 0 0 0 0 0 0 0 0 0 0 0 0 0 0 0 0 0 0 0 0 0 0 0 0 0 0 0 0 0 0 0 0 0 0
0 0 0 0 0 0 0 0 0 0 0 0 0 0 0 0 0 0 0 0 0 0 0 0 0 0 0 0 0 0 0 0 0 0 0 0 0 0 0 0 0 0 0
0 0 0 0 0 0 0 0 0 0 0 0 0 0 0 0 0 0 0 0 0 0 0 0 0 0 0 0 0 0 0 0 0 0 0 0 0 0 0 0 0 0 0
0 0 0 0 0 0 0 0 0 0 0 0 0 0 0 0 0 0 0 0 0 0 0 0 0 0 0 0 0 0 0 0 0 0 0 0 0 0 0 0 0 0 0
0 0 0 0 0 0 0 0 0 0 0 0 0 0 0 0 0 0 0 0 0 0 0 0 0 0 0 0 0 0 0 0 0 0 0 0 0 0 0 0 0 0 0
0 0 0 0 0 0 0 0 0 0 0 0 0 0 0 0 0 0 0 0 0 0 0 0 0 0 0 0 0 0 0 0 0 0 0 0 0 0 0 0 0 0 0
0 0 0 0 0 0 0 0 0 0 0 0 0 0 0 0 0 0 0 0 0 0 0 0 0 0 0 0 0 0 0 0 0 0 0 0 0 0 0 0 0 0 0
0 0 0 0 0 0 0 0 0 0 0 0 0 0 0 0 0 0 0 0 0 0 0 0 0 0 0 0 0 0 0 0 0 0 0 0 0 0 0 0 0 0 0
0 0 0 0 0 0 0 0 0 0 0 0 0 0 0 0 0 0 0 0 0 0 0 0 0 0 0 0 0 0 0 0 0 0 0 0 0 0 0 0 0 0 0
0 0 0 0 0 0 0 0 0 0 0 0 0 0 0 0 0 0 0 0 0 0 0 0 0 0 0 0 0 0 0 0 0 0 0 0 0 0 0 0 0 0 0
0 0 0 0 0 0 0 0 0 0 0 0 0 0 0 0 0 0 0 0 0 0 0 0 0 0 0 0 0 0 0 0 0 0 0 0 0 0 0 0 0 0 0
0 0 0 0 0 0 0 0 0 0 0 0 0 0 0 0 0 0 0 0 0 0 0 0 0 0 0 0 0 0 0 0 0 0 0 0 0 0 0 0 0 0 0
0 0 0 0 0 0 0 0 0 0 0 0 0 0 0 0 0 0 0 0 0 0 0 0 0 0 0 0 0 0 0 0 0 0 0 0 0 0 0 0 0 0 0
0 0 0 0 0 0 0 0 0 0 0 0 0 0 0 0 0 0 0 0 0 0 0 0 0 0 0 0 0 0 0 0 0 0 0 0 0 0 0 0 0 0 0
0 0 0 0 0 0 0 0 0 0 0 0 0 0 0 0 0 0 0 0 0 0 0 0 0 0 0 0 0 0 0 0 0 0 0 0 0 0 0 0 0 0 0
Height
5828 5827 5826 5825 5823 5822 5821 5820 5818 5816 5815 5813 5811 5810 5808 5806 5804 5802 5800 5798 5796 5794 5792 5790 5788 5786 5785 5783 5782 5781 5781 5780 5780 5780 5780 5780 5781 5782 5783 5784 5786 5787 5789
5821 5820 5818 5817 5816 5814 5813 5812 5810 5808 5806 5805 5803 5801 5799 5797 5795 5793 5790 5788 5786 5783 5781 5779 5777 5775 5773 5771 5770 5769 5768 5768 5767 5767 5767 5768 5768 5769 5770 5771 5773 5774 5776
5813 5812 5811 5809 5807 5806 5805 5803 5801 5799 5797 5795 5793 5791 5789 5787 5785 5783 5780 5778 5775 5773 5770 5768 5765 5763 5761 5759 5758 5756 5755 5755 5754 5754 5754 5754 5755 5756 5757 5758 5759 5761 5762
5804 5803 5802 5800 5798 5796 5795 5793 5791 5790 5787 5785 5783 5781 5779 5777 5774 5772 5769 5766 5764 5761 5758 5756 5753 5750 5748 5746 5744 5743 5742 5741 5740 5740 5740 5740 5740 5741 5742 5743 5745 5747 5748
5795 5793 5792 5790 5788 5786 5785 5783 5781 5778 5776 5774 5771 5770 5768 5765 5763 5760 5757 5754 5751 5748 5745 5742 5740 5737 5735 5732 5731 5729 5728 5726 5726 5725 5725 5725 5725 5726 5727 5728 5730 5731 5733
5785 5783 5782 5780 5777 5776 5774 5771 5769 5766 5764 5761 5759 5758 5756 5753 5750 5748 5744 5741 5738 5735 5732 5729 5726 5723 5721 5718 5716 5714 5713 5712 5711 5710 5710 5709 5710 5710 5711 5712 5714 5715 5717
5775 5772 5771 5768 5766 5764 5762 5759 5757 5754 5751 5747 5746 5745 5743 5740 5738 5734 5730 5728 5724 5720 5717 5714 5711 5708 5706 5703 5701 5699 5697 5696 5695 5695 5694 5694 5694 5694 5695 5696 5697 5698 5700
5764 5762 5760 5757 5754 5752 5749 5747 5743 5740 5738 5734 5731 5729 5728 5728 5724 5720 5716 5713 5710 5706 5703 5699 5696 5693 5690 5687 5685 5683 5681 5680 5679 5678 5678 5678 5678 5678 5678 5679 5680 5681 5683
5753 5750 5747 5744 5742 5739 5736 5733 5729 5726 5723 5720 5716 5713 5711 5711 5709 5707 5703 5699 5695 5691 5687 5684 5680 5677 5674 5672 5669 5667 5665 5664 5663 5662 5661 5661 5660 5661 5661 5661 5662 5663 5665
5741 5738 5734 5731 5728 5725 5722 5718 5714 5711 5707 5705 5701 5698 5694 5692 5689 5689 5689 5685 5680 5676 5672 5668 5665 5662 5659 5656 5653 5651 5649 5647 5646 5645 5644 5643 5643 5642 5642 5643 5644 5645 5646
5728 5725 5721 5717 5714 5710 5707 5703 5699 5695 5691 5688 5685 5682 5678 5675 5671 5668 5669 5668 5664 5660 5656 5652 5648 5645 5642 5639 5637 5634 5632 5630 5629 5628 5626 5625 5625 5624 5624 5624 5624 5625 5626
5715 5711 5706 5702 5698 5695 5691 5687 5682 5678 5675 5672 5668 5664 5661 5658 5655 5650 5647 5648 5645 5643 5638 5635 5632 5629 5625 5622 5619 5617 5615 5614 5612 5611 5609 5608 5607 5606 5605 5605 5605 5606 5606
5701 5696 5691 5687 5683 5678 5674 5670 5665 5661 5657 5654 5651 5647 5643 5640 5637 5632 5628 5627 5625 5624 5621 5619 5615 5611 5607 5605 5602 5599 5598 5596 5594 5593 5591 5589 5588 5587 5586 5586 5586 5586 5586
5686 5681 5675 5671 5666 5661 5656 5652 5647 5644 5639 5636 5632 5628 5624 5622 5618 5614 5610 5607 5604 5604 5603 5602 5598 5593 5589 5586 5584 5581 5580 5578 5576 5574 5572 5571 5569 5568 5567 5566 5566 5566 5566
5670 5664 5659 5653 5648 5643 5638 5633 5629 5625 5621 5617 5614 5609 5606 5603 5599 5596 5592 5588 5585 5583 5585 5584 5580 5575 5570 5567 5565 5563 5561 5559 5557 5555 5553 5551 5550 5548 5547 5546 5546 5545 5545
5653 5647 5641 5635 5629 5624 5618 5613 5610 5606 5602 5599 5594 5590 5587 5584 5580 5576 5573 5570 5566 5563 5564 5566 5561 5556 5552 5549 5546 5544 5542 5540 5537 5535 5533 5532 5530 5528 5527 5525 5525 5524 5523
5635 5628 5622 5616 5610 5605 5599 5594 5590 5586 5582 5579 5574 5571 5568 5564 5560 5557 5553 5551 5548 5544 5544 5546 5541 5537 5533 5530 5527 5525 5523 5521 5518 5516 5513 5511 5509 5508 5506 5504 5503 5502 5501
5615 5608 5602 5596 5590 5585 5579 5574 5570 5566 5562 5559 5555 5550 5548 5543 5540 5537 5534 5531 5529 5526 5524 5525 5522 5518 5515 5511 5508 5505 5503 5501 5499 5496 5493 5491 5489 5487 5485 5483 5481 5479 5478
5594 5587 5580 5575 5569 5563 5558 5553 5549 5545 5541 5538 5534 5530 5527 5522 5520 5517 5514 5512 5509 5506 5504 5504 5503 5499 5496 5492 5489 5486 5484 5481 5478 5476 5474 5471 5469 5466 5464 5462 5459 5457 5455
5572 5565 5558 5552 5547 5541 5536 5531 5527 5524 5520 5517 5513 5510 5506 5503 5500 5496 5494 5492 5489 5487 5485 5483 5483 5480 5477 5473 5469 5468 5464 5461 5459 5457 5454 5452 5449 5446 5444 5440 5437 5435 5432
5548 5542 5535 5529 5524 5518 5514 5509 5505 5502 5499 5496 5493 5489 5486 5482 5479 5476 5474 5472 5469 5467 5465 5463 5462 5460 5458 5453 5451 5447 5445 5443 5441 5438 5435 5432 5429 5427 5423 5418 5415 5411 5408
5525 5518 5512 5507 5502 5497 5491 5487 5484 5482 5479 5476 5473 5469 5466 5462 5459 5456 5454 5452 5450 5448 5446 5444 5443 5441 5439 5434 5430 5428 5426 5424 5424 5420 5415 5413 5409 5407 5402 5398 5393 5389 5385
5504 5497 5491 5485 5481 5476 5471 5467 5463 5461 5460 5457 5454 5450 5447 5443 5439 5437 5434 5432 5431 5429 5428 5426 5424 5422 5418 5415 5411 5409 5407 5405 5405 5401 5396 5395 5390 5387 5382 5377 5373 5367 5362
5483 5477 5471 5466 5461 5457 5451 5448 5444 5442 5440 5438 5435 5431 5428 5425 5421 5418 5416 5414 5412 5410 5408 5406 5405 5403 5400 5396 5393 5391 5388 5387 5386 5382 5376 5375 5371 5367 5363 5358 5352 5346 5340
5464 5458 5452 5447 5442 5438 5433 5429 5426 5424 5422 5419 5416 5413 5410 5408 5404 5400 5399 5398 5395 5393 5389 5387 5386 5384 5382 5379 5375 5373 5370 5368 5367 5364 5358 5355 5352 5347 5344 5340 5333 5325 5318
5446 5440 5435 5429 5424 5420 5416 5412 5408 5406 5404 5402 5399 5396 5392 5389 5386 5382 5381 5380 5379 5375 5372 5370 5368 5366 5364 5361 5358 5355 5352 5350 5348 5347 5341 5335 5332 5326 5325 5323 5315 5306 5298
Wind_Speed
28 28 28 29 30 30 31 31 32 33 34 35 36 37 38 38 39 40 41 42 43 43 44 45 45 46 47 47 47 48 48 49 50 51 52 52 53 53 54 54 54 54 54
32 32 33 33 34 35 35 36 36 37 38 39 40 41 41 42 43 44 45 45 46 47 47 48 49 49 50 50 50 50 50 51 51 52 53 54 55 55 56 56 56 57 57
36 36 37 38 39 39 39 40 41 42 43 43 44 45 45 46 46 47 48 49 49 50 51 51 52 52 52 53 52 52 52 52 53 53 54 55 56 57 58 58 59 59 59
40 41 41 42 43 44 44 44 45 46 47 47 48 49 49 49 50 50 51 51 52 53 54 54 55 55 55 55 55 55 55 54 54 55 55 56 57 58 59 60 60 61 61
44 45 45 46 47 47 48 48 49 50 51 51 52 52 52 53 53 53 54 54 55 56 57 57 57 57 57 58 58 58 57 57 56 56 56 57 57 58 59 60 61 62 63
46 47 48 49 50 51 51 52 53 54 54 55 56 55 55 56 56 56 57 57 58 58 59 59 59 59 59 59 60 60 59 59 58 58 58 58 58 59 60 61 62 62 63
47 49 50 51 53 54 54 56 57 57 58 59 59 58 58 58 58 58 60 60 60 60 60 60 61 61 61 61 61 61 61 60 59 59 58 58 58 59 59 60 62 63 64
48 50 52 53 55 56 57 58 59 60 60 61 62 62 61 60 60 61 61 61 61 61 61 62 62 63 62 62 62 61 60 60 60 60 60 60 60 60 60 61 62 63 64
49 51 53 55 56 58 59 60 61 62 62 63 64 64 64 63 63 62 61 61 62 62 63 64 63 62 61 60 61 61 61 61 61 61 61 60 60 61 62 62 63 64 65
50 53 55 57 58 59 60 61 63 64 65 65 66 66 67 67 67 65 62 62 63 63 63 63 62 61 60 60 60 61 61 61 61 61 61 61 61 62 63 64 64 65 66
52 54 56 58 60 61 62 63 65 66 67 67 68 68 68 68 68 69 66 64 64 63 63 63 62 61 61 60 60 60 60 60 61 60 60 61 61 62 63 64 65 65 66
53 55 57 59 61 62 63 65 66 68 68 68 69 69 69 69 68 69 68 66 65 63 63 62 62 61 61 60 60 60 59 59 60 60 60 61 62 63 63 64 64 64 65
54 56 59 60 62 63 64 66 67 68 69 69 69 69 69 69 69 69 68 67 66 64 63 62 61 61 61 61 61 61 60 60 61 61 62 62 62 62 62 63 63 64 64
55 57 60 61 63 64 65 67 67 68 69 69 69 69 69 68 69 69 68 68 67 64 63 61 61 62 63 63 62 62 62 63 63 63 63 62 62 62 62 63 64 64 65
57 59 60 62 64 65 66 67 68 68 68 68 69 69 69 68 68 68 68 67 67 66 63 62 62 62 64 63 63 64 64 64 64 64 64 64 63 64 64 64 65 65 65
61 62 63 64 64 65 66 66 67 67 67 68 68 69 68 68 68 68 67 67 67 66 63 60 61 62 63 63 64 64 65 65 64 64 65 65 65 65 65 65 66 66 66
66 66 66 66 66 66 66 67 66 67 67 67 68 68 68 68 68 68 68 67 66 66 64 61 62 62 63 64 65 65 65 65 65 66 65 65 65 65 65 66 66 67 68
70 69 69 68 68 67 67 67 67 67 67 67 67 68 67 68 68 67 67 66 65 65 64 62 62 63 63 64 65 64 65 65 65 65 65 65 65 65 65 66 67 68 68
72 72 71 70 69 68 68 68 68 68 67 67 67 67 67 68 67 67 67 66 66 65 65 63 62 63 63 63 64 64 64 64 63 63 64 64 65 65 65 66 67 68 69
74 73 71 71 70 69 69 69 69 68 68 67 67 66 66 66 65 66 66 66 66 65 65 64 63 62 62 63 64 63 63 62 61 62 62 63 64 65 65 67 68 68 69
74 73 71 70 70 69 68 68 67 67 66 65 64 64 63 64 65 65 66 65 65 64 64 63 62 61 61 62 62 62 61 61 61 61 62 62 63 64 65 66 67 68 70
72 71 70 68 67 66 66 66 65 64 63 61 60 60 61 61 62 62 62 62 62 61 61 61 60 60 60 60 61 61 61 61 60 60 62 62 63 63 64 65 66 68 69
69 68 67 66 64 63 63 62 62 61 59 58 57 57 57 58 59 59 59 60 59 59 59 60 60 59 59 59 60 60 61 60 60 61 62 61 62 62 63 64 65 66 68
66 65 64 63 61 60 59 58 58 58 57 56 56 55 55 55 55 56 56 57 57 58 58 58 57 57 57 58 59 60 60 61 60 60 61 60 60 62 62 62 63 64 66
62 60 59 58 57 56 56 56 56 55 54 54 54 54 54 54 54 55 55 54 55 55 56 56 56 56 56 57 58 59 59 60 58 57 59 60 60 61 61 59 60 62 64
58 56 55 55 55 53 53 53 53 53 52 52 52 52 52 52 53 54 54 54 53 53 54 55 55 55 55 55 57 57 58 58 57 56 56 59 60 61 59 56 57 58 60
Wind_Direction
269 270 271 273 275 277 279 281 283 284 286 287 288 288 289 290 291 291 291 291 291 290 290 290 289 288 286 284 282 279 277 274 272 270 268 267 266 265 264 263 262 262 261
269 270 271 273 274 276 278 279 281 282 283 284 285 286 287 288 289 289 290 290 290 289 289 289 288 288 287 285 283 281 279 276 274 271 269 267 265 264 264 263 263 262 262
268 269 271 272 273 275 276 278 279 280 281 283 284 285 286 287 288 288 288 289 289 288 288 288 288 287 286 285 284 282 280 278 275 273 270 268 266 265 263 262 262 262 262
268 269 270 271 272 274 276 277 278 279 281 282 283 284 285 286 286 287 287 287 287 287 287 287 287 286 285 285 284 283 281 279 277 274 272 269 267 266 264 263 262 261 260
269 270 270 271 272 274 275 276 278 279 280 281 282 283 284 285 285 286 286 286 286 286 286 286 286 285 285 284 283 283 282 280 278 276 273 271 269 267 265 264 262 261 260
272 272 272 272 273 274 275 276 277 279 280 280 281 282 283 284 285 285 285 285 286 286 285 285 285 285 284 284 283 282 281 280 278 276 274 273 270 268 266 265 263 262 261
272 272 273 273 274 275 276 276 278 279 279 280 281 282 282 283 284 284 284 285 286 285 285 285 285 284 284 283 282 281 280 279 278 276 275 273 271 269 267 266 264 263 262
274 275 276 276 276 277 277 278 279 279 280 280 281 282 282 282 283 283 284 285 285 284 284 284 284 284 283 282 281 280 279 278 278 277 275 273 271 269 268 266 265 264 263
277 277 277 277 278 278 279 279 280 280 281 281 282 283 283 283 282 282 283 284 283 283 283 284 283 283 283 282 281 280 279 278 277 277 275 274 272 270 269 268 266 265 264
279 279 279 279 278 279 279 279 279 280 280 281 281 282 283 283 283 283 282 282 282 283 283 282 282 282 282 281 280 279 278 278 277 277 276 274 273 272 271 269 268 267 266
280 279 279 279 279 279 279 279 279 279 279 280 281 281 282 282 283 284 283 282 282 282 281 281 281 281 281 280 279 278 278 277 276 276 276 275 274 273 272 271 270 268 267
282 281 280 280 279 279 279 278 278 279 279 280 280 281 281 281 282 282 283 282 281 281 280 280 280 280 280 279 277 277 277 277 277 276 276 276 275 274 273 271 270 269 268
284 282 281 281 280 279 278 278 278 278 279 279 280 280 280 281 281 282 282 282 281 280 280 280 280 280 280 279 277 277 277 278 277 277 277 276 275 274 273 272 270 269 269
286 285 284 282 281 280 279 278 278 278 278 278 279 279 279 280 280 281 281 281 281 280 280 280 279 279 279 279 278 277 278 278 278 278 277 277 276 275 274 273 271 270 269
289 288 286 284 282 281 280 279 278 278 278 278 278 278 278 279 279 279 279 279 280 280 280 279 279 279 278 278 278 278 278 279 279 279 278 277 277 276 275 273 272 271 271
290 288 287 286 284 282 281 280 279 278 277 277 277 277 278 278 278 278 279 279 279 280 280 280 278 277 277 278 279 279 279 279 279 279 278 277 277 276 276 274 273 272 272
290 289 287 285 284 283 281 280 280 279 278 278 277 277 277 276 276 277 278 278 279 279 280 279 278 278 278 279 279 279 279 279 279 278 278 277 277 277 276 275 274 274 273
290 289 287 285 284 283 281 280 280 279 278 278 278 277 277 277 276 276 276 277 278 279 279 279 278 278 278 278 278 279 279 279 278 278 278 277 277 277 277 276 276 276 275
290 288 287 285 283 282 281 280 279 279 278 278 278 277 277 276 276 276 275 276 277 277 278 278 277 278 278 278 278 278 279 278 278 278 277 277 277 278 278 278 277 277 277
291 289 286 285 282 281 280 279 278 278 277 278 278 277 276 276 275 275 275 276 276 276 277 277 277 278 278 278 278 278 278 278 278 278 278 278 278 279 279 278 278 278 278
291 288 286 284 282 281 280 279 279 278 278 278 278 277 276 275 275 274 275 275 275 275 276 277 277 277 278 278 278 277 277 277 278 278 278 279 279 280 280 279 279 279 279
290 288 286 284 283 282 281 281 280 279 279 279 278 278 277 276 275 275 274 274 274 275 276 277 277 278 278 277 276 276 277 277 278 278 279 279 280 281 281 281 281 281 281
290 288 287 285 284 284 283 282 281 281 280 279 279 278 277 277 276 275 274 274 274 275 276 276 277 277 276 276 276 277 277 278 278 278 279 280 280 281 282 282 282 281 281
292 291 289 288 286 285 284 282 282 281 280 279 279 278 277 277 277 276 275 275 275 276 276 276 276 275 275 275 276 276 277 278 278 279 280 280 281 282 282 283 283 283 283
294 292 291 289 288 286 285 284 283 282 281 280 279 278 278 278 277 277 276 276 276 276 276 276 276 275 275 275 276 277 278 278 279 280 281 281 282 283 283 284 284 284 284
296 294 292 290 289 287 286 285 284 283 282 280 279 279 279 278 278 277 277 276 276 276 275 276 276 276 276 276 276 277 278 279 280 280 281 282 283 284 285 285 285 285 285